Location: Düngen
(52.0952°N, 10.0219°E)
Time: 09:39:19
(UTC+00:00)

Cosmos 1607 - Visible Passes

Search period start: 09 June 2026 00:00
Search period end: 19 June 2026 00:00
Orbit: 916 x 986 km, 65.0° (Epoch: 9 June)

Date Brightness Start Highest point End Pass type
(mag) Time Alt. Az. Time Alt. Az. Time Alt. Az.
9 Jun 4.3 21:36:54 10° NW 21:43:07 56° WSW 21:48:10 16° SSE visible
9 Jun 6.0 23:26:35 10° W 23:29:04 12° WSW 23:31:34 10° SW visible
10 Jun 4.9 21:55:06 10° NW 22:00:54 37° WSW 22:05:32 15° S visible
11 Jun 4.1 20:25:32 10° NW 20:31:58 89° NE 20:38:27 10° SE visible
11 Jun 5.5 22:13:34 10° WNW 22:18:32 24° WSW 22:22:57 12° SSW visible
12 Jun 4.3 20:43:36 10° NW 20:49:56 64° SW 20:56:17 10° SSE visible
12 Jun 6.0 22:32:38 10° WNW 22:36:02 15° WSW 22:39:27 10° SW visible
13 Jun 4.8 21:01:46 10° NW 21:07:45 43° WSW 21:13:44 10° S visible
14 Jun 5.4 21:20:07 10° WNW 21:25:26 28° WSW 21:30:44 10° SSW visible
15 Jun 6.0 21:38:55 10° WNW 21:42:58 18° WSW 21:47:02 10° SSW visible
16 Jun 6.4 21:59:44 10° W 22:00:22 10° W 22:01:00 10° WSW visible
17 Jun 5.3 20:26:44 10° NW 20:32:17 32° WSW 20:37:54 10° S visible
18 Jun 5.9 20:45:19 10° WNW 20:49:54 21° WSW 20:54:28 10° SSW visible
